* Astronomy

Members Login
Username 
 
Password 
    Remember Me  
Post Info TOPIC: Asteroid 2012 VG6


L

Posts: 131433
Date:
Asteroid 2012 VG6
Permalink  
 


Orbital elements:
2012 VG6                                                 Earth MOID = 0.1872 AU
Epoch 2012 Sept. 30.0 TT = JDT 2456200.5                MPC
M 338.33449              (2000.0)            P               Q
n   0.27450586     Peri.   85.19593     +0.14677610     -0.98913868
a   2.3447775      Node   356.33607     +0.85197096     +0.13044043
e   0.5222046      Incl.    7.04557     +0.50259552     +0.06774924
P   3.59           H   22.4           G   0.15           U   8

MPEC 2012 - V27



__________________
Page 1 of 1  sorted by
 
Quick Reply

Please log in to post quick replies.



Create your own FREE Forum
Report Abuse
Powered by ActiveBoard